Regional Weather Roundup
Issued by NWS Sterling, VA

Home | Current Version | Previous Version | Graphics & Text | Print | Product List | Glossary On
Versions: 1 2 3 4 5 6 7 8 9 10 11 12 13 14 15 16 17 18 19 20 21 22 23 24 25 26 27
000
ASUS41 KLWX 181811
RWRLWX

REGIONAL WEATHER ROUNDUP
NATIONAL WEATHER SERVICE BALTIMORE MD/WASHINGTON DC
200 PM EDT FRI AUG 18 2017

Note: "FAIR" indicates few or no clouds below 12,000 feet
with no significant weather and/or obstructions to visibility.
 TC=TEMPERATURE CELSIUS

 * =Non NWS site. Station does not report precipitation (e.g. rain,
    snow, etc.), thunder, or fog.

DCZ001-MDZ009-015-VAZ040>042-051-053>054-181900-
WASHINGTON METRO

CITY           SKY/WX    TMP DP  RH WIND       PRES   REMARKS
WASHINGTON NAT MOSUNNY   89  80  74 S12       29.81F HX 106
DULLES         PTSUNNY   90  75  61 S8        29.81F HX 100
ANDREWS AFB    SUNNY     88  76  67 SW8       29.82F HX  99
FT BELVOIR     SUNNY     90  75  62 S8        29.81F HX 100
QUANTICO       MOSUNNY   88  81  79 S13       29.82F HX 106
COLLEGE PARK*  SUNNY     90  75  61 SW7       29.81F HX 101
LEESBURG*      MOSUNNY   93  77  59 S10       29.82F HX 107
MANASSAS*      MOSUNNY   92  76  59 S9        29.81F HX 104
GAITHERSBURG*  MOSUNNY   92  76  59 S9        29.83F HX 104

$$

MDZ006>007-011-014-181900-
BALTIMORE METRO

CITY           SKY/WX    TMP DP  RH WIND       PRES   REMARKS
BWI AIRPORT    MOSUNNY   89  77  67 SW6       29.81F HX 101
MD SCIENCE CTR   N/A     90  78  68 MISG      29.81F HX 104
MARTIN STATE   MOSUNNY   86  81  84 SE13      29.84F HX 102
ANNAPOLIS      MOSUNNY   86  82  88 SE16      29.82F HX 104
FORT MEADE*      N/A     88  75  66 SE6       29.84F HX  97

$$

MDZ012-015-019>023-181900-
MARYLAND EASTERN SHORE

CITY           SKY/WX    TMP DP  RH WIND       PRES   REMARKS
OCEAN CITY     SUNNY     83  79  88 S13       29.87F HX  94
SALISBURY      PTSUNNY   89  79  72 SW14      29.85F HX 104
BAY BRIDGE AP* SUNNY     88  77  70 S12       29.83F HX 100
CAMBRIDGE*     CLOUDY    86  79  79 S9G16     29.84F HX  99

$$

MDZ017>025-181900-
SOUTHERN MARYLAND

CITY           SKY/WX    TMP DP  RH WIND       PRES   REMARKS
PATUXENT RIVER MOSUNNY   88  80  77 S8        29.83F HX 104
ST INIGOES     SUNNY     88  80  77 SE8       29.83F HX 104
LEONARDTOWN*   MOSUNNY   88  77  70 S6        29.85F HX 100

$$

MDZ003>005-181900-
NORTH CENTRAL MARYLAND

CITY           SKY/WX    TMP DP  RH WIND       PRES   REMARKS
FREDERICK*     MOSUNNY   91  73  55 SW13      29.83F HX 100
HAGERSTOWN APT LGT RAIN  82  72  71 SW14G24   29.83S
WESTMINSTER*   MOSUNNY   93  75  55 SW10G16   29.83F HX 104

$$

MDZ501>502-181900-
WESTERN MARYLAND

CITY           SKY/WX    TMP DP  RH WIND       PRES   REMARKS
OAKLAND*       CLOUDY    70  68  94 W8G16     29.94S
CUMBERLAND*    PTSUNNY   82  72  69 W8        29.88R

$$

VAZ025>031-181900-
SHENANDOAH VALLEY

CITY           SKY/WX    TMP DP  RH WIND       PRES   REMARKS
WINCHESTER*    PTSUNNY   88  72  58 SW8       29.82F HX  94
FRONT ROYAL*   PTSUNNY   90  73  58 S3        29.82F HX  98
LURAY*         PTSUNNY   90  70  51 S9G17     29.84F HX  95
NEW MARKET*    PTSUNNY   87  67  50 SW10G17   29.83S HX  90
STAUNTON*      PTSUNNY   85  71  61 SW9       29.90S HX  90
WAYNESBORO*    SUNNY     88  71  57 SW9       29.90F HX  93

$$

WVZ021-048>050-054>055-181900-
EASTERN WEST VIRGINIA PANHANDLE

CITY           SKY/WX    TMP DP  RH WIND       PRES   REMARKS
MARTINSBURG    PTSUNNY   89  72  56 SW9       29.80F HX  96
PETERSBURG*    CLOUDY    83  73  72 NW8       29.86R

$$

VAZ036>039-050-181900-
CENTRAL FOOTHILLS

CITY           SKY/WX    TMP DP  RH WIND       PRES   REMARKS
CHARLOTTESVILL PTSUNNY   90  73  57 CALM      29.84F HX  98
CULPEPER*      MOSUNNY   93  75  55 SW7       29.83F HX 103
ORANGE*        MOSUNNY   91  72  52 S6G17     29.83F HX  98
GORDONSVILLE*  MOSUNNY   92  73  54 S13       29.82F HX 100
WARRENTON*     MOSUNNY   94  70  45 S8        29.81F HX 100

$$

VAZ055>057-181900-
NORTH AND CENTRAL PIEDMONT

CITY           SKY/WX    TMP DP  RH WIND       PRES   REMARKS
FREDERICKSBRG* MOSUNNY   93  76  57 S8        29.81F HX 106
STAFFORD*      SUNNY     91  74  58 SW8       29.86F HX 101

$$

NCZ024-NYZ072-PAZ021-071-VAZ022-071-181900-
OTHER REGIONAL OBSERVATIONS

CITY           SKY/WX    TMP DP  RH WIND       PRES   REMARKS
NEW YORK CITY  CLOUDY    79  76  90 VRB5      29.86F
PHILADELPHIA   CLOUDY    84  76  76 W10       29.83F HX  93
PITTSBURGH     MOSUNNY   82  68  62 W10G20    29.83F
ROANOKE        CLOUDY    92  68  45 W14G22    29.91F HX  96
RICHMOND       MOSUNNY   89  78  70 S9        29.85F HX 103
RALEIGH        MOSUNNY   95  76  53 W8        29.89F HX 108

$$

ANZ530>537-181900-
MARINE OBSERVATIONS

STATION/POSITION TIME  TEMP    WIND        PRES
                       AIR SEA DIR/SP/G
                 (UTC) (F)     (DEG/KT/KT) (MB)
THOMAS PT LIGHT  1800   81 80  160/ 14/ 15   N/A
BALT KEY BRIDGE  1748   82     120/ 11/ 12 1009.5F
COVE POINT       1748   82     180/ 13/ 13 1010.9F
LEWISETTA        1748   87 81  220/  8/  9 1010.5F
SOLOMONS ISLAND  1742   86 81  210/  8/ 11   N/A
PINEY POINT      1748          180/  4/  6   N/A

$$





USA.gov is the U.S. government's official web portal to all federal, state and local government web resources and services.